Theta_e
354 360 366 367 367 367 365 364 363 363 362 361 362 362 362 362 363 364 363 362 362 361 361 360 358 355 353 354 354 356 356 356 355 354 354 354 355 353 350 348 351 347 351
357 360 364 366 367 367 365 364 363 362 361 361 362 362 362 362 363 364 363 362 361 358 356 356 354 352 353 354 355 355 355 355 354 353 353 354 354 353 349 348 351 347 348
357 360 362 366 367 367 366 364 363 362 361 361 362 362 362 363 363 363 363 362 360 357 354 352 351 351 352 353 354 354 353 353 352 352 354 354 348 351 349 348 349 349 347
357 360 359 365 366 366 366 364 363 362 361 361 361 362 362 362 362 362 362 361 359 356 352 350 350 351 351 352 353 353 352 352 350 350 351 348 346 351 349 348 348 348 347
356 358 362 364 365 366 366 364 363 362 361 362 362 361 362 362 362 362 361 361 357 354 351 349 349 350 351 352 352 352 352 353 354 353 348 347 349 351 352 349 348 347 346
353 356 361 363 364 365 365 364 363 362 362 362 362 361 361 362 361 361 361 360 357 353 349 347 347 346 347 348 348 348 348 347 345 344 345 346 347 353 352 350 350 349 347
352 355 363 362 364 364 364 364 363 363 362 362 362 362 361 361 361 360 361 359 357 353 350 346 345 346 345 342 342 343 342 341 338 341 342 345 348 348 351 351 350 349 349
352 355 362 361 362 363 363 363 363 362 362 362 362 362 361 361 360 360 360 358 357 354 351 347 346 346 345 344 342 342 342 341 340 338 337 338 345 346 346 349 352 352 352
353 353 360 357 361 362 362 361 361 361 361 362 361 360 360 360 360 359 359 357 355 354 351 349 347 346 345 343 343 344 342 343 339 339 339 341 344 340 343 349 352 353 354
351 351 357 356 354 356 359 361 360 360 360 360 360 360 359 358 357 357 357 356 354 352 350 349 347 346 346 346 346 346 342 343 336 335 340 343 345 340 340 343 348 354 356
348 350 355 353 353 353 351 357 359 359 360 359 359 359 356 353 355 354 352 355 354 351 349 348 348 348 346 346 347 346 342 334 336 338 339 347 344 344 347 347 349 354 357
345 347 351 355 355 354 350 356 354 355 357 358 358 359 355 352 353 348 350 355 354 351 350 349 349 347 342 335 338 343 336 338 343 341 341 349 345 346 349 350 351 353 356
343 347 348 356 359 355 351 351 352 349 349 352 355 359 358 351 351 347 346 347 348 349 342 343 341 339 337 337 338 342 342 344 344 343 344 350 347 347 349 351 353 356 355
335 346 349 353 361 364 354 351 353 349 349 348 348 360 357 352 355 353 343 347 348 340 343 343 337 343 342 344 348 347 345 346 346 347 348 351 348 348 349 351 353 356 357
330 343 349 353 362 366 367 355 354 355 348 349 350 355 354 351 355 350 350 345 344 340 341 341 342 345 343 348 351 349 349 350 351 350 349 352 349 349 349 351 352 355 357
329 333 348 352 364 362 363 366 362 362 355 350 350 351 355 356 356 348 349 345 343 343 342 343 345 343 344 348 351 353 352 353 353 353 350 351 351 350 351 351 352 354 357
328 333 337 353 357 365 364 363 362 357 356 353 351 355 355 358 359 353 348 348 348 350 353 350 346 347 344 348 351 351 352 353 352 353 353 350 349 350 351 351 352 354 356
327 330 339 345 352 362 365 363 359 358 356 354 354 355 357 356 358 356 349 348 348 353 349 344 343 340 340 342 349 347 349 353 351 352 351 350 348 346 350 352 352 352 353
325 328 330 337 342 356 365 362 363 363 359 357 357 355 358 357 355 355 349 349 355 348 347 345 341 345 341 343 342 344 348 349 352 348 349 350 354 351 350 350 350 349 349
325 330 337 339 348 357 359 364 358 359 359 356 355 356 358 359 358 355 351 348 352 348 346 344 347 345 342 341 337 339 350 346 346 348 350 349 349 351 354 353 352 349 349
326 329 335 337 346 345 348 349 352 352 354 356 358 360 358 359 357 357 352 352 351 348 350 352 349 349 343 346 343 341 343 353 356 351 349 347 349 350 355 355 351 353 350
325 333 336 338 343 343 338 352 351 354 353 356 358 360 362 361 358 357 354 352 353 351 352 350 353 346 345 347 340 339 331 340 348 352 349 349 351 346 349 353 350 356 356
322 328 330 338 343 344 347 340 350 357 356 350 353 357 357 360 360 360 357 357 353 352 347 355 354 350 341 345 348 339 332 329 338 344 350 347 354 346 345 347 351 352 355
321 323 326 334 336 336 347 339 343 339 344 347 349 353 358 361 358 358 359 357 349 350 348 353 355 351 347 340 345 347 352 346 337 331 342 347 349 350 355 349 350 351 352
320 321 325 335 339 339 341 345 337 340 339 345 348 354 359 359 360 356 359 360 351 353 354 352 355 354 349 343 345 346 347 343 343 336 330 334 341 342 340 338 333 341 352
320 321 324 330 336 337 338 341 346 345 347 344 346 346 352 350 357 357 356 358 359 355 352 354 357 357 351 349 349 348 339 336 334 333 331 332 331 336 337 333 334 338 346
Wind_Speed
17 19 17 16 14 13 15 15 15 15 15 15 14 14 13 13 12 12 13 12 11 11 11 10 10 10 10 10 10 9 9 9 8 8 7 7 7 6 4 3 5 9 8
21 20 15 18 16 14 15 15 14 15 15 15 14 14 13 13 12 12 11 11 10 11 10 10 9 9 10 11 9 8 8 7 6 5 5 9 7 5 3 4 11 10 7
20 20 17 16 17 14 15 16 14 14 14 15 15 14 14 13 12 12 11 10 10 10 9 8 9 9 8 9 8 7 6 6 4 5 8 8 10 6 4 4 6 7 6
18 18 18 14 16 15 13 14 14 15 15 15 14 14 13 13 13 12 11 11 10 10 9 9 9 8 7 7 6 5 4 3 3 7 9 3 8 11 5 3 2 3 1
16 16 16 15 15 16 14 12 13 14 14 15 15 14 13 13 12 11 10 9 9 9 9 8 9 8 8 5 4 3 3 3 5 10 7 4 6 13 9 4 5 4 1
15 16 18 12 13 15 16 14 12 13 13 13 13 14 13 13 12 11 10 9 9 9 9 7 6 6 6 6 5 5 5 5 8 12 2 7 4 11 9 5 1 2 1
13 15 17 14 13 14 14 15 16 15 13 12 12 12 12 12 11 10 10 10 9 8 8 8 7 6 5 6 6 6 6 6 10 14 1 2 9 8 6 6 4 3 3
12 13 16 15 13 14 14 15 15 15 15 13 11 10 11 11 10 10 9 9 8 8 8 8 7 6 5 5 5 5 6 7 10 10 4 4 12 8 4 6 6 6 6
12 11 14 16 14 12 12 14 15 15 15 13 12 11 9 9 9 9 8 8 8 7 7 7 7 6 6 6 6 6 7 8 11 10 6 2 9 7 4 5 7 8 8
11 12 13 14 16 14 13 11 12 13 14 15 14 13 11 9 8 8 6 7 8 8 8 7 7 7 7 7 7 7 9 11 12 12 6 6 9 5 4 6 7 10 10
9 11 13 15 15 15 15 13 11 12 12 13 13 12 13 10 11 12 11 12 9 7 7 7 7 6 6 9 11 11 10 8 11 7 5 12 8 5 7 7 8 9 12
10 11 12 12 14 15 12 14 14 13 12 12 13 14 11 12 10 11 11 11 9 8 7 7 7 7 9 9 10 13 8 11 7 5 1 10 7 7 8 8 9 9 11
12 11 13 13 12 14 12 10 8 9 9 10 14 12 12 10 9 9 7 8 8 10 8 10 10 9 11 10 7 11 10 6 5 4 7 11 7 8 9 9 9 10 10
12 12 12 13 11 12 10 10 10 11 11 10 12 13 9 8 8 7 8 10 8 9 9 9 8 9 11 9 9 9 6 5 5 3 9 12 9 9 9 10 11 11 10
12 13 14 12 13 10 10 9 10 10 10 12 11 12 11 12 8 9 8 8 9 10 10 9 8 6 7 9 9 8 8 7 6 4 4 12 12 11 12 12 12 11 10
9 11 13 15 12 14 12 11 6 6 8 10 9 11 15 10 9 10 9 10 9 9 9 9 7 6 7 8 8 7 7 7 6 6 6 4 13 13 13 13 13 13 12
8 10 13 13 14 14 14 12 10 10 10 9 9 12 14 13 11 11 10 9 7 7 7 5 5 6 7 7 8 7 7 9 8 8 7 8 5 12 14 13 13 12 11
6 6 6 10 14 14 13 12 12 12 11 12 11 11 15 16 11 11 8 7 8 4 6 9 9 9 8 8 7 7 6 7 7 7 8 8 6 6 11 12 12 9 9
5 5 7 9 13 12 15 13 12 14 13 12 12 12 16 17 17 11 10 10 9 8 7 9 9 7 7 7 7 7 7 7 7 8 8 6 6 6 5 9 10 9 10
7 6 6 7 9 10 8 10 11 10 11 12 11 12 18 15 18 15 12 12 12 8 9 9 9 9 9 7 9 7 5 7 7 8 8 7 8 7 5 4 5 7 12
10 9 8 9 7 9 10 11 12 13 14 12 12 15 15 15 18 17 14 13 13 17 16 11 9 9 8 6 4 6 6 8 8 7 8 8 7 7 7 5 4 4 5
12 12 11 9 8 7 10 10 11 10 13 13 13 15 14 15 17 16 15 13 14 12 15 16 16 10 8 6 7 5 7 8 8 6 8 8 7 5 3 4 5 6 8
14 14 14 12 9 9 9 10 10 12 12 13 13 12 15 16 17 17 18 14 14 12 10 11 10 11 8 9 11 7 6 9 5 7 6 6 8 7 7 4 6 9 10
12 14 14 14 14 12 10 12 14 14 14 14 13 13 14 19 18 19 19 19 15 11 12 11 11 12 9 10 9 6 7 5 4 5 6 5 5 6 5 6 7 9 10
15 12 14 12 13 14 13 12 13 15 14 13 13 15 15 15 19 20 20 20 18 13 14 15 14 12 13 10 9 8 4 6 3 4 6 7 4 5 6 5 6 11 9
15 12 12 14 12 13 13 14 15 18 17 14 15 14 13 13 14 19 21 18 17 17 17 15 15 17 15 12 10 9 9 7 8 8 9 9 10 6 4 7 5 5 19
Wind_Direction
130 138 134 135 136 145 151 147 150 149 144 145 143 140 139 137 136 134 130 125 123 121 121 123 124 120 110 109 108 109 112 110 106 105 110 113 108 93 76 10 327 89 92
127 145 141 138 140 148 154 152 154 151 150 149 148 147 146 144 141 137 135 134 132 129 127 132 129 123 124 126 125 125 123 123 125 139 142 130 112 115 90 33 25 81 81
128 149 155 141 141 147 154 155 155 154 155 154 154 154 152 149 146 142 143 144 140 134 135 136 132 128 127 129 130 137 142 147 159 203 213 217 113 130 102 60 59 75 76
131 151 161 145 140 142 151 155 157 157 159 159 158 158 157 154 151 150 151 153 149 143 145 144 138 135 135 141 147 155 163 173 217 260 252 224 133 140 128 107 81 75 102
142 157 147 148 144 144 147 154 159 160 164 164 161 161 161 157 152 152 153 152 153 151 153 153 147 144 145 155 165 183 207 247 277 271 254 52 317 132 143 161 173 174 81
150 160 132 145 146 149 151 153 159 163 164 166 164 163 164 160 156 156 158 158 161 160 159 156 147 154 161 168 185 209 231 252 268 250 78 117 276 130 143 173 260 66 86
152 154 153 152 153 154 157 159 160 161 163 165 166 166 165 162 158 158 162 164 167 165 163 160 161 162 173 186 203 222 237 255 269 296 315 226 81 115 160 183 201 212 243
152 158 151 155 161 159 161 162 162 160 157 161 161 166 166 161 161 164 166 171 170 166 167 170 170 172 182 199 220 241 259 268 268 259 305 291 119 116 173 213 218 219 228
157 175 152 175 172 161 164 164 162 160 157 156 154 156 160 162 160 165 174 178 171 166 168 176 180 185 192 210 228 242 259 272 281 285 285 215 106 124 166 224 239 234 232
164 176 160 179 184 189 180 172 170 163 162 159 157 155 154 155 168 177 174 188 182 178 183 190 190 198 205 222 230 237 247 260 256 269 217 117 129 139 202 234 238 237 228
174 182 173 176 183 194 194 177 173 171 170 164 164 162 159 198 186 185 205 164 182 194 200 208 212 215 225 235 235 231 243 251 248 222 257 127 132 173 214 227 231 233 227
195 195 183 186 184 195 203 176 199 195 198 201 195 188 210 212 205 206 187 161 173 196 215 222 229 230 230 247 208 214 233 249 247 266 214 133 154 206 224 223 230 229 227
204 196 196 180 187 198 205 183 187 206 204 205 210 204 201 203 209 191 183 183 203 196 218 202 211 232 227 239 260 199 213 229 251 212 117 142 176 229 241 242 242 240 232
244 208 206 184 195 199 206 196 189 205 197 204 205 198 202 217 207 204 208 191 190 198 217 219 215 224 226 248 265 283 250 275 262 270 130 152 182 223 249 253 254 246 236
281 198 207 210 189 199 231 211 207 201 201 203 194 195 207 199 202 204 211 220 186 212 189 226 232 216 231 244 249 234 246 243 281 282 284 169 188 211 232 244 249 248 235
260 272 215 199 201 199 206 233 218 214 220 206 197 193 206 203 193 198 214 212 213 208 213 206 213 225 227 257 228 244 249 259 262 273 276 219 192 204 218 226 238 241 234
277 254 265 200 214 201 210 215 233 216 211 200 208 199 193 213 200 204 201 205 212 215 234 221 225 207 250 245 252 270 254 241 244 246 258 261 211 203 217 213 227 234 245
277 299 274 266 208 212 214 208 222 220 217 227 202 202 191 202 212 192 204 214 191 217 193 225 208 228 216 238 242 246 242 236 254 250 254 258 273 279 204 208 223 230 252
266 273 267 265 260 222 206 222 211 227 224 213 217 204 195 194 194 204 210 192 203 199 206 212 227 222 224 227 244 238 245 260 255 255 264 266 256 258 279 167 206 221 234
283 302 287 276 288 239 246 205 230 225 225 225 227 217 202 199 193 200 201 195 181 200 221 219 221 217 226 228 236 239 239 257 263 250 256 247 242 214 223 248 209 220 229
297 304 293 306 288 282 227 233 213 228 224 227 225 227 209 196 199 195 212 195 191 179 198 218 213 210 218 223 217 247 257 225 224 256 257 253 243 202 220 241 266 290 245
297 299 293 290 272 263 264 233 246 222 233 221 221 216 223 201 202 203 208 201 206 200 198 195 199 198 214 213 209 228 242 224 198 197 236 237 231 228 243 237 262 260 292
300 300 292 289 280 264 264 274 254 232 243 232 222 210 214 212 202 207 208 218 211 209 200 190 194 199 201 212 228 192 242 228 224 166 210 231 233 223 210 237 243 252 257
303 300 297 294 292 278 244 252 262 265 242 235 233 218 207 203 210 206 213 215 226 208 203 194 195 198 183 219 200 206 255 298 224 216 192 215 222 227 253 262 265 253 252
302 308 309 303 294 267 268 259 268 255 252 246 241 233 213 201 204 212 213 217 214 216 199 210 193 194 198 212 192 194 207 215 229 231 231 223 236 223 258 241 270 351 267
310 303 312 312 297 286 278 268 259 259 263 249 234 236 215 205 205 207 221 211 215 213 206 199 191 195 207 194 196 190 206 195 209 227 237 247 249 249 237 264 234 215 253